Location: Unspecified
(43.3830°N, 0.0000°E)
Time: 08:22:45
(UTC+00:00)

N. Korean satellite - Pass Details

Date: 02 December 2020
Orbit: 453 x 502 km, 97.2° (Epoch: 16 January)

Event Time Altitude Azimuth Distance (km) Brightness Sun altitude
Rises 05:16:15 0° 16° (NNE) 2,567 10.3 -20.8°
Reaches altitude 10° 05:18:21 10° 21° (NNE) 1,689 9.4 -20.4°
Maximum altitude 05:21:55 55° 100° (E) 603 7.3 -19.8°
Drops below altitude 10° 05:25:31 10° 179° (S) 1,696 9.5 -19.1°
Sets 05:27:37 0° 184° (S) 2,578 10.4 -18.8°
